When you browse on this site, cookies collect data to enhance your experience and personalize the content and advertising you see.
Visit our Privacy Policy to learn more. By continuing to use the site, you agree to this use of cookies and data.
  • In Hungary
  • List of Countries
  • For 7 days
  • Water Temperature
  • Weather Map
  • News
  • Weather Widgets
  • user-avatar
    Login

    Hourly Weather Tervu

    Today, 21 August, Wednesday

    Time Temperature Precipitation Wind Pressure Humidity
    00:00 +13°C° 0 mm 4 mps 762 mmHg 88%
    01:00 +12°C° 0 mm 3 mps 762 mmHg 90%
    02:00 +12°C° 0 mm 3 mps 763 mmHg 93%
    03:00 +12°C° 0 mm 3 mps 763 mmHg 95%
    04:00 +12°C° 0 mm 3 mps 763 mmHg 96%
    05:00 +12°C° 0 mm 3 mps 763 mmHg 97%
    06:00 +13°C° 0 mm 3 mps 763 mmHg 89%
    07:00 +16°C° 0 mm 3 mps 763 mmHg 81%
    08:00 +18°C° 0 mm 3 mps 763 mmHg 74%
    09:00 +19°C° 0 mm 3 mps 763 mmHg 67%
    10:00 +20°C° 0 mm 3 mps 764 mmHg 61%
    11:00 +22°C° 0 mm 3 mps 764 mmHg 55%
    12:00 +22°C° 0.1 mm 3 mps 763 mmHg 54%
    13:00 +22°C° 0.1 mm 3 mps 763 mmHg 54%
    14:00 +22°C° 0.1 mm 3 mps 763 mmHg 54%
    15:00 +21°C° 0 mm 3 mps 763 mmHg 55%
    16:00 +21°C° 0 mm 4 mps 762 mmHg 55%
    17:00 +20°C° 0 mm 4 mps 762 mmHg 56%
    18:00 +19°C° 0 mm 4 mps 762 mmHg 63%
    19:00 +18°C° 0 mm 4 mps 762 mmHg 69%
    20:00 +15°C° 0 mm 4 mps 762 mmHg 76%
    21:00 +15°C° 0 mm 4 mps 762 mmHg 79%
    22:00 +15°C° 0 mm 4 mps 761 mmHg 82%
    23:00 +14°C° 0 mm 4 mps 761 mmHg 86%

    Tomorrow, 22 August, Thursday

    Time Temperature Precipitation Wind Pressure Humidity
    00:00 +14°C° 0.1 mm 4 mps 761 mmHg 88%
    01:00 +13°C° 0.1 mm 3 mps 761 mmHg 90%
    02:00 +13°C° 0.1 mm 3 mps 761 mmHg 92%
    03:00 +13°C° 0.2 mm 3 mps 761 mmHg 93%
    04:00 +13°C° 0.2 mm 3 mps 761 mmHg 94%
    05:00 +14°C° 0.2 mm 2 mps 761 mmHg 95%
    06:00 +13°C° 0 mm 3 mps 761 mmHg 91%
    07:00 +14°C° 0 mm 3 mps 761 mmHg 87%
    08:00 +15°C° 0 mm 4 mps 761 mmHg 83%
    09:00 +18°C° 0 mm 4 mps 761 mmHg 73%
    10:00 +19°C° 0 mm 4 mps 761 mmHg 62%
    11:00 +20°C° 0 mm 4 mps 761 mmHg 52%
    12:00 +21°C° 0 mm 4 mps 761 mmHg 50%
    13:00 +21°C° 0 mm 4 mps 761 mmHg 48%
    14:00 +22°C° 0 mm 4 mps 761 mmHg 46%
    15:00 +22°C° 0 mm 4 mps 761 mmHg 48%
    16:00 +21°C° 0 mm 4 mps 761 mmHg 49%
    17:00 +21°C° 0 mm 4 mps 761 mmHg 51%
    18:00 +19°C° 0 mm 4 mps 761 mmHg 59%
    19:00 +17°C° 0 mm 4 mps 761 mmHg 67%
    20:00 +14°C° 0 mm 4 mps 762 mmHg 75%
    21:00 +14°C° 0 mm 3 mps 762 mmHg 79%
    22:00 +13°C° 0 mm 3 mps 762 mmHg 83%
    23:00 +12°C° 0 mm 3 mps 762 mmHg 87%

    Day after tomorrow, 23 August, Friday

    Time Temperature Precipitation Wind Pressure Humidity
    00:00 +13°C° 0 mm 3 mps 763 mmHg 87%
    01:00 +13°C° 0 mm 3 mps 763 mmHg 88%
    02:00 +13°C° 0 mm 3 mps 763 mmHg 89%
    03:00 +12°C° 0 mm 4 mps 763 mmHg 90%
    04:00 +12°C° 0 mm 4 mps 763 mmHg 90%
    05:00 +12°C° 0 mm 4 mps 763 mmHg 91%
    06:00 +13°C° 0 mm 4 mps 763 mmHg 87%
    07:00 +14°C° 0 mm 4 mps 763 mmHg 82%
    08:00 +15°C° 0 mm 4 mps 763 mmHg 77%
    09:00 +17°C° 0 mm 4 mps 763 mmHg 72%
    10:00 +18°C° 0 mm 4 mps 763 mmHg 67%
    11:00 +19°C° 0 mm 4 mps 763 mmHg 61%
    12:00 +19°C° 0.3 mm 4 mps 763 mmHg 62%
    13:00 +20°C° 0.3 mm 5 mps 762 mmHg 63%
    14:00 +20°C° 0.3 mm 5 mps 762 mmHg 64%
    15:00 +20°C° 0.2 mm 5 mps 762 mmHg 66%
    16:00 +19°C° 0.2 mm 5 mps 762 mmHg 68%
    17:00 +19°C° 0.2 mm 5 mps 761 mmHg 70%
    18:00 +17°C° 0.1 mm 5 mps 761 mmHg 73%
    19:00 +16°C° 0.1 mm 5 mps 761 mmHg 75%
    20:00 +15°C° 0.1 mm 5 mps 761 mmHg 78%
    21:00 +15°C° 0 mm 5 mps 761 mmHg 81%
    22:00 +15°C° 0 mm 4 mps 761 mmHg 83%
    23:00 +14°C° 0 mm 4 mps 760 mmHg 86%

    24 August, Saturday

    Time Temperature Precipitation Wind Pressure Humidity
    00:00 +14°C° 0.2 mm 4 mps 760 mmHg 88%
    01:00 +14°C° 0.2 mm 4 mps 760 mmHg 91%
    02:00 +14°C° 0.2 mm 4 mps 759 mmHg 93%
    03:00 +14°C° 0.6 mm 5 mps 759 mmHg 93%
    04:00 +15°C° 0.6 mm 5 mps 758 mmHg 94%
    05:00 +15°C° 0.6 mm 6 mps 758 mmHg 94%
    06:00 +15°C° 0.2 mm 6 mps 758 mmHg 92%
    07:00 +16°C° 0.2 mm 6 mps 758 mmHg 91%
    08:00 +16°C° 0.2 mm 6 mps 757 mmHg 89%
    09:00 +17°C° 0.2 mm 6 mps 757 mmHg 84%
    10:00 +17°C° 0.2 mm 6 mps 757 mmHg 78%
    11:00 +19°C° 0.2 mm 6 mps 757 mmHg 73%
    12:00 +20°C° 0 mm 6 mps 757 mmHg 65%
    13:00 +20°C° 0 mm 6 mps 757 mmHg 56%
    14:00 +21°C° 0 mm 6 mps 758 mmHg 47%
    15:00 +21°C° 0 mm 6 mps 758 mmHg 47%
    16:00 +21°C° 0 mm 6 mps 758 mmHg 47%
    17:00 +20°C° 0 mm 6 mps 758 mmHg 46%
    18:00 +19°C° 0 mm 5 mps 758 mmHg 53%
    19:00 +16°C° 0 mm 5 mps 758 mmHg 59%
    20:00 +15°C° 0 mm 4 mps 759 mmHg 65%
    21:00 +14°C° 0 mm 4 mps 759 mmHg 71%
    22:00 +13°C° 0 mm 5 mps 759 mmHg 76%
    23:00 +13°C° 0 mm 5 mps 760 mmHg 82%

    25 August, Sunday

    Time Temperature Precipitation Wind Pressure Humidity
    00:00 +12°C° 0 mm 5 mps 760 mmHg 85%
    01:00 +12°C° 0 mm 5 mps 761 mmHg 89%
    02:00 +10°C° 0 mm 5 mps 761 mmHg 92%
    03:00 +10°C° 0 mm 5 mps 762 mmHg 92%
    04:00 +10°C° 0 mm 5 mps 762 mmHg 92%
    05:00 +10°C° 0 mm 5 mps 763 mmHg 92%
    06:00 +12°C° 0 mm 4 mps 763 mmHg 86%
    07:00 +13°C° 0 mm 4 mps 764 mmHg 81%
    08:00 +14°C° 0 mm 4 mps 764 mmHg 75%
    09:00 +15°C° 0 mm 4 mps 765 mmHg 69%
    10:00 +17°C° 0 mm 3 mps 765 mmHg 64%
    11:00 +19°C° 0 mm 3 mps 766 mmHg 58%
    12:00 +19°C° 0 mm 3 mps 766 mmHg 55%
    13:00 +19°C° 0 mm 3 mps 766 mmHg 52%
    14:00 +20°C° 0 mm 3 mps 766 mmHg 49%
    15:00 +19°C° 0 mm 2 mps 766 mmHg 50%
    16:00 +19°C° 0 mm 2 mps 767 mmHg 51%
    17:00 +19°C° 0 mm 2 mps 767 mmHg 51%
    18:00 +17°C° 0 mm 2 mps 767 mmHg 59%
    19:00 +15°C° 0 mm 1 mps 767 mmHg 66%
    20:00 +13°C° 0 mm 1 mps 767 mmHg 73%
    21:00 +13°C° 0 mm 1 mps 767 mmHg 75%
    22:00 +12°C° 0 mm 1 mps 767 mmHg 76%
    23:00 +12°C° 0 mm 1 mps 768 mmHg 78%

    26 August, Monday

    Time Temperature Precipitation Wind Pressure Humidity
    00:00 +12°C° 0 mm 1 mps 768 mmHg 79%
    01:00 +11°C° 0 mm 1 mps 768 mmHg 80%
    02:00 +11°C° 0 mm 1 mps 768 mmHg 81%
    03:00 +12°C° 0 mm 2 mps 767 mmHg 81%
    04:00 +12°C° 0 mm 2 mps 767 mmHg 81%
    05:00 +13°C° 0 mm 2 mps 767 mmHg 81%
    06:00 +14°C° 0 mm 2 mps 767 mmHg 77%
    07:00 +15°C° 0 mm 2 mps 767 mmHg 74%
    08:00 +16°C° 0 mm 3 mps 767 mmHg 71%
    09:00 +18°C° 0 mm 3 mps 767 mmHg 64%
    10:00 +19°C° 0 mm 3 mps 766 mmHg 57%
    11:00 +21°C° 0 mm 3 mps 766 mmHg 51%
    12:00 +21°C° 0 mm 3 mps 766 mmHg 48%
    13:00 +22°C° 0 mm 3 mps 766 mmHg 45%
    14:00 +22°C° 0 mm 3 mps 765 mmHg 43%
    15:00 +22°C° 0 mm 3 mps 765 mmHg 44%
    16:00 +21°C° 0 mm 4 mps 764 mmHg 45%
    17:00 +21°C° 0 mm 4 mps 764 mmHg 46%
    18:00 +19°C° 0 mm 3 mps 764 mmHg 55%
    19:00 +17°C° 0 mm 3 mps 763 mmHg 64%
    20:00 +15°C° 0 mm 2 mps 763 mmHg 74%
    21:00 +15°C° 0 mm 2 mps 763 mmHg 77%
    22:00 +14°C° 0 mm 2 mps 763 mmHg 80%
    23:00 +14°C° 0 mm 2 mps 762 mmHg 82%
    Show more